Location: Bennemühlen
(52.5740°N, 9.7135°E)
Time: 05:52:54
(UTC+00:00)

A-11 Canister half - Pass Details

Date: 22 February 2026
Orbit: 1512 x 1687 km, 47.2° (Epoch: 5 March)

Event Time Altitude Azimuth Distance (km) Brightness Sun altitude
Rises 16:54:54 0° 177° (S) 4,923 11.8 -2.0°
Reaches altitude 10° 16:59:54 10° 157° (SSE) 3,945 11.1 -2.7°
Maximum altitude 17:05:01 15° 126° (SE) 3,533 10.5 -3.5°
Drops below altitude 10° 17:10:08 10° 95° (E) 3,937 10.5 -4.3°
Enters shadow 17:12:42 - 83° (E) 4,395 10.7 -4.6°
Sets 17:15:04 0° 75° (ENE) 4,908 - -5.0°
